Precipitable_Water
1.38 1.37 1.39 1.40 1.28 1.21 1.22 1.23 1.27 1.33 1.32 1.23 1.27 1.24 1.17 1.16 1.19 1.40 1.47 1.55 1.54 1.50 1.49 1.60 1.65 1.60 1.57 1.58 1.58 1.58 1.62 1.47 1.37
1.11 1.29 1.30 1.43 1.40 1.27 1.23 1.26 1.25 1.28 1.32 1.30 1.27 1.22 1.22 1.15 1.13 1.28 1.43 1.52 1.54 1.51 1.59 1.69 1.63 1.65 1.56 1.58 1.58 1.52 1.52 1.50 1.38
0.95 1.19 1.34 1.42 1.46 1.47 1.23 1.24 1.27 1.26 1.34 1.33 1.31 1.26 1.20 1.13 1.09 1.15 1.29 1.47 1.45 1.51 1.58 1.64 1.55 1.58 1.61 1.58 1.61 1.65 1.48 1.52 1.49
0.82 0.94 1.27 1.39 1.44 1.54 1.37 1.33 1.36 1.34 1.31 1.30 1.34 1.36 1.27 1.14 1.09 1.07 1.17 1.28 1.37 1.45 1.55 1.52 1.52 1.53 1.52 1.52 1.52 1.60 1.53 1.42 1.44
0.77 0.80 1.08 1.32 1.51 1.61 1.60 1.49 1.52 1.46 1.39 1.41 1.38 1.41 1.37 1.25 1.17 1.09 1.02 1.09 1.25 1.38 1.37 1.49 1.56 1.52 1.49 1.53 1.53 1.53 1.47 1.39 1.34
0.89 0.92 1.06 1.24 1.49 1.63 1.67 1.67 1.62 1.63 1.58 1.57 1.52 1.45 1.40 1.35 1.29 1.19 1.06 0.98 1.08 1.24 1.31 1.35 1.46 1.49 1.47 1.44 1.46 1.47 1.42 1.38 1.31
0.98 1.06 1.17 1.26 1.41 1.54 1.68 1.71 1.65 1.69 1.71 1.71 1.69 1.63 1.49 1.37 1.34 1.30 1.23 1.15 0.99 1.05 1.17 1.25 1.32 1.39 1.44 1.46 1.44 1.44 1.42 1.36 1.30
0.98 1.06 1.17 1.22 1.30 1.44 1.63 1.68 1.68 1.66 1.69 1.76 1.79 1.67 1.57 1.44 1.43 1.43 1.37 1.30 1.22 1.07 0.96 1.07 1.20 1.30 1.36 1.44 1.46 1.46 1.41 1.35 1.27
0.86 0.99 1.12 1.23 1.32 1.40 1.54 1.73 1.61 1.67 1.64 1.71 1.83 1.73 1.64 1.60 1.53 1.48 1.42 1.40 1.36 1.32 1.25 1.00 0.97 1.06 1.18 1.24 1.33 1.39 1.41 1.39 1.33
0.79 0.90 1.03 1.17 1.30 1.44 1.60 1.69 1.81 1.69 1.66 1.72 1.76 1.73 1.75 1.71 1.68 1.58 1.52 1.50 1.47 1.37 1.31 1.34 1.21 1.01 0.96 0.99 1.11 1.22 1.26 1.32 1.34
0.75 0.85 0.96 1.06 1.18 1.37 1.56 1.71 1.80 1.77 1.80 1.77 1.70 1.72 1.77 1.77 1.77 1.76 1.70 1.62 1.52 1.50 1.45 1.35 1.29 1.28 1.23 1.06 0.98 0.99 1.09 1.16 1.23
0.71 0.82 0.93 1.01 1.15 1.21 1.50 1.55 1.66 1.77 1.87 1.81 1.64 1.64 1.80 1.89 1.91 1.90 1.86 1.72 1.64 1.64 1.61 1.49 1.38 1.31 1.28 1.24 1.19 1.14 1.05 1.03 1.05
0.57 0.70 0.85 0.95 1.03 1.18 1.18 1.34 1.47 1.52 1.70 1.75 1.72 1.72 1.79 1.97 1.98 2.01 1.98 1.93 1.82 1.80 1.79 1.68 1.63 1.46 1.35 1.24 1.20 1.28 1.24 1.21 1.15
0.56 0.60 0.70 0.87 0.96 1.00 1.09 1.22 1.32 1.38 1.40 1.58 1.72 1.77 1.82 1.88 1.95 1.95 1.95 1.96 1.99 1.94 1.84 1.82 1.72 1.63 1.61 1.48 1.34 1.23 1.26 1.29 1.30
0.56 0.53 0.57 0.72 0.82 0.94 1.02 1.13 1.21 1.30 1.36 1.43 1.64 1.77 1.77 1.82 1.86 1.91 1.92 1.95 1.94 1.93 1.92 1.82 1.75 1.68 1.59 1.59 1.58 1.53 1.40 1.30 1.31
0.59 0.58 0.55 0.62 0.75 0.86 0.99 1.04 1.09 1.17 1.33 1.49 1.43 1.45 1.67 1.66 1.74 1.77 1.81 1.87 1.87 1.88 1.91 1.84 1.75 1.65 1.57 1.54 1.59 1.59 1.58 1.54 1.45
0.59 0.59 0.58 0.62 0.67 0.73 0.81 0.95 1.01 1.09 1.25 1.34 1.33 1.34 1.33 1.45 1.52 1.62 1.68 1.78 1.90 1.91 1.85 1.78 1.74 1.65 1.59 1.60 1.61 1.58 1.63 1.61 1.61
0.56 0.59 0.61 0.64 0.66 0.71 0.75 0.85 0.89 1.00 1.08 1.22 1.30 1.24 1.29 1.29 1.29 1.38 1.61 1.68 1.80 1.93 1.96 1.86 1.73 1.70 1.78 1.74 1.65 1.61 1.75 1.78 1.72
0.57 0.57 0.63 0.67 0.67 0.71 0.73 0.73 0.75 0.88 0.98 1.00 1.04 1.15 1.15 1.26 1.28 1.26 1.47 1.63 1.67 1.96 2.02 1.96 1.89 1.88 1.91 1.89 1.84 1.90 1.84 1.85 1.90
0.60 0.63 0.64 0.69 0.72 0.72 0.68 0.69 0.71 0.74 0.81 0.91 0.87 0.94 1.03 1.17 1.15 1.22 1.25 1.51 1.57 1.55 1.82 1.94 1.84 1.75 1.77 1.80 1.79 1.86 1.88 1.91 1.97
Wind_Speed
20 24 21 24 24 25 25 26 27 27 26 25 25 24 22 22 22 22 20 18 17 16 15 12 10 10 9 7 6 6 5 5 6
21 25 23 24 23 25 25 26 27 27 27 26 26 26 24 24 23 23 22 20 18 17 16 14 12 11 10 9 7 6 6 5 6
22 24 25 24 24 27 26 26 27 27 28 28 27 27 26 25 25 25 25 23 21 19 18 17 15 14 12 10 9 8 7 6 6
22 25 27 25 24 27 27 26 26 27 27 28 28 27 27 26 26 26 26 26 24 22 18 18 17 16 14 13 12 11 9 8 8
18 23 25 26 26 28 28 28 27 28 27 27 28 29 29 28 28 27 28 28 27 25 23 20 19 18 17 15 14 14 13 11 10
9 13 19 22 23 25 26 26 28 30 31 29 28 28 31 30 30 29 29 30 30 29 27 25 23 21 20 19 17 16 16 14 13
10 10 16 20 21 22 25 25 27 29 32 32 31 30 30 32 32 31 31 31 31 31 31 29 27 25 23 22 21 19 19 17 16
10 11 14 19 21 22 23 23 24 30 31 33 32 33 32 32 33 32 32 32 32 32 33 32 31 30 28 26 24 23 23 21 20
12 12 13 18 21 21 22 23 24 25 26 31 34 34 33 33 33 34 34 33 33 33 33 34 34 33 32 31 29 27 26 25 24
15 15 14 17 20 22 23 22 22 26 29 29 32 35 34 33 33 33 33 34 35 35 35 34 35 35 35 34 33 32 30 29 28
21 20 18 18 19 20 22 22 22 22 26 30 32 32 36 35 34 34 33 32 33 34 35 35 36 36 36 36 36 35 34 33 31
26 25 24 22 22 22 21 22 20 21 21 24 28 30 29 33 34 33 33 33 32 32 34 34 35 35 36 36 36 36 36 35 34
30 30 28 26 24 25 24 23 21 19 20 23 26 27 29 30 31 33 33 32 32 32 32 33 33 34 35 36 36 36 37 36 36
34 34 33 31 29 27 26 26 24 24 22 25 27 29 30 31 32 32 31 32 32 32 32 32 32 33 33 33 34 35 36 37 36
38 37 36 35 33 31 30 27 28 25 26 27 27 27 31 30 32 33 31 32 32 33 32 33 32 32 33 33 33 33 33 35 37
42 40 40 39 38 37 35 33 29 28 25 24 22 23 26 28 31 34 33 33 33 33 33 33 32 31 31 31 31 32 33 33 34
45 44 42 42 42 40 40 38 36 34 32 32 32 28 27 28 31 32 35 36 34 34 34 33 33 31 31 31 30 30 30 31 33
47 47 46 45 44 44 43 41 40 39 38 34 33 31 30 27 27 30 33 37 34 36 37 37 34 34 33 32 31 31 31 30 30
45 48 48 48 47 45 46 44 43 41 40 40 39 38 33 31 30 30 31 35 36 36 38 38 38 36 35 34 34 32 33 33 32
42 45 48 49 49 49 47 46 46 46 44 44 42 40 40 38 34 34 34 37 37 35 35 39 39 39 39 38 36 35 35 35 34
Wind_Direction
210 206 207 208 208 206 205 206 206 208 208 209 209 209 209 209 209 206 205 204 203 203 201 202 199 200 197 194 193 192 190 191 201
213 210 212 208 210 209 209 209 210 211 211 212 212 212 212 212 211 209 209 208 208 207 208 209 209 206 205 205 204 202 201 202 204
220 217 215 215 214 212 211 211 212 215 215 214 214 214 214 215 215 214 213 212 211 211 214 213 213 212 211 212 213 212 210 213 212
224 220 217 215 217 213 212 211 213 215 216 216 217 217 217 217 217 217 216 216 216 215 215 215 217 218 218 219 221 221 221 222 222
233 220 219 221 221 218 218 219 219 217 216 217 219 220 220 220 220 220 219 219 219 219 220 220 220 222 223 224 227 227 228 229 229
245 220 215 217 218 219 221 224 224 222 221 222 221 222 223 223 223 222 222 222 222 223 224 225 225 227 228 229 231 231 231 232 234
251 232 220 215 219 221 224 228 228 225 224 225 225 225 225 224 225 225 225 226 226 226 227 228 229 230 232 233 234 234 233 234 237
252 245 231 225 224 227 231 232 232 227 227 226 226 228 227 226 226 226 228 228 229 229 230 232 232 233 234 235 236 237 237 238 240
247 251 245 235 231 233 236 234 233 231 232 230 228 228 228 227 227 227 229 230 231 231 232 233 234 234 236 237 238 238 239 240 243
244 246 249 242 238 238 239 235 241 237 238 236 229 227 227 227 227 227 229 231 232 233 234 234 235 236 237 238 239 239 240 242 244
244 245 248 246 242 240 239 241 242 244 244 236 229 228 228 227 228 228 229 231 232 234 235 236 236 237 238 239 240 240 241 242 245
245 245 245 247 244 244 242 240 250 247 240 227 223 225 228 227 228 229 230 232 233 235 235 236 237 238 239 239 241 241 241 242 244
247 247 246 245 247 244 243 242 245 241 238 229 226 228 230 229 228 229 230 232 234 236 237 237 237 239 240 240 241 241 241 242 243
246 245 246 244 244 244 244 244 243 240 242 233 233 233 232 231 231 231 231 233 235 237 238 238 238 239 240 241 242 242 242 242 243
246 246 245 243 243 243 244 244 242 245 245 239 234 235 233 235 234 232 233 237 238 238 238 239 240 240 241 242 242 242 243 243 243
245 246 245 243 242 242 242 242 244 241 241 229 231 236 234 241 241 237 237 239 238 240 238 239 239 240 241 242 243 243 243 244 244
246 246 244 243 241 241 242 242 242 240 241 242 244 244 247 247 244 243 238 238 240 238 237 238 239 240 241 242 243 244 244 245 246
246 245 244 242 241 239 240 241 243 242 242 243 245 247 250 251 246 243 246 236 240 239 238 237 238 240 241 241 242 244 244 245 246
247 245 243 241 240 240 238 241 242 243 244 244 247 246 247 249 250 248 244 240 243 243 238 238 239 241 242 243 244 246 246 246 247
250 246 243 239 238 239 240 240 241 242 244 246 247 246 246 249 251 248 249 242 241 243 241 241 241 242 243 244 245 246 247 247 248